Weather in Tol'skiy Maydan

Russia / Nizhny Novgorod Oblast'     54°56′50″N   44°39′08″E
temp.,
°C
wind,
m/s
gust,
m/s
humid.,
%
clouds,
%
prec.,
mm/h
press.,
hPa
HPBL,
m
15 april, thu
thu1500:00+11sse33795 0.0 102136
03:00+9sse23845 0.0 102019
06:00+9sse34845 0.0 102056
09:00+14s3459100 0.0 1019341
12:00+17sse3345100 0.0 1018828
15:00+18sse213733 0.0 10181519
18:00+16ene11475 0.0 101811
21:00+12e335821 0.0 101917
16 april, fri
fri1600:00+11ene336339 0.0 101824
03:00+8ne5109891 0.0 1020250
06:00+8ne6991100 0.0 1020414
09:00+9ene6885100 0.0 1021515
12:00+11ene677892 0.0 1022655
15:00+12ne677162 0.0 1022854
18:00+11ne6107649 0.0 1022519
21:00+7ne6128638 0.0 1024325
17 april, sat
sat1700:00+5ne511855 0.0 1024270
03:00+4ne512825 0.0 1025280
06:00+4ne6128528 0.0 1025320
09:00+7ene6107199 0.0 1026504
12:00+11ene795453 0.0 1025893
15:00+13ene78435 0.0 10251193
18:00+10ene510465 0.0 1025373
21:00+6ne411620 0.0 1026218
18 april, sun
sun1800:00+5ne512690 0.0 1026272
03:00+3ne411750 0.0 1027225
06:00+3ne410800 0.0 1028258
09:00+8ne6957100 0.0 1028779
12:00+11ne7846100 0.0 10271402
15:00+12ne7945100 0.0 10271759
18:00+10ne7115416 0.0 1027686
21:00+7ene7126675 0.0 1029533
19 april, mon
mon1900:00+4ne5107395 0.0 1031398
03:00+2ne41069100 0.0 1032303
06:00+2ene4969100 0.0 1034351
09:00+5ene684263 0.0 10351181
12:00+7ene68350 0.0 10351628
15:00+8ene67330 0.0 10351746
18:00+6ene57410 0.0 1036493
21:00+2ene49540 0.0 1037200